Location: Ferma
(41.9500°N, 44.5167°E)
Time: 20:54:13
(UTC+00:00)

CZ-2C R/B - Pass Details

Date: 01 June 2022
Orbit: 381 x 549 km, 35.0° (Epoch: 25 June)

Event Time Altitude Azimuth Distance (km) Brightness Sun altitude
Exits shadow 23:55:24 16° 167° (SSE) 1,140 2.6 -14.1°
Maximum altitude 23:55:34 16° 163° (SSE) 1,139 2.6 -14.1°
Drops below altitude 10° 23:57:38 10° 124° (SE) 1,452 3.6 -13.9°
Sets 00:00:22 0° 102° (ESE) 2,348 5.0 -13.5°
